"February 25 to March 27, 1992",,,,,,,,,,,,,,,
NOAA Ship Malcolm Baldrige,,,,,,,,,,,,,,,
Group,JD_GMT,Date,Time,Latitude,Longitude,xCO2w_ppm,xCO2a_ppm,Pres_Equil_mB,Pres_sealevel_mB,EqTemp_C,SST(TSG)_C,Sal(TSG)_permil,fCO2w@SST_uatm,fCO2a_uatm,dfCO2_uatm
AOML,56.75,25021992,18:00:00,6.94,-81.15,370.07,362.75,1009.81,1009.81,27.07,27.02,33.41,351.74,347.76,4
AOML,56.792,25021992,19:00:29,6.96,-81.4,370.33,360.62,1009.01,1009.01,27.5,27.41,33.33,351.94,345.1,6.8
AOML,56.833,25021992,19:59:31,7.01,-81.64,372.84,360.6,1008.35,1008.35,27.89,27.82,33.17,351.78,344.65,7.1
AOML,56.875,25021992,21:00:00,7.04,-81.82,372.64,360.01,1007.81,1007.81,27.77,27.67,33.21,350.54,344.04,6.5
AOML,56.917,25021992,22:00:29,7.09,-82.07,374.9,360.42,1007.87,1007.87,28.06,27.96,33.18,352.83,344.21,8.6
AOML,56.959,25021992,23:00:58,7.15,-82.31,379.71,358.18,1008.03,1008.03,27.88,27.84,33.25,359.11,342.19,16.9
AOML,57,26021992,0:00:00,7.19,-82.56,373.87,357.76,1008.41,1008.41,28.99,28.87,32.76,353.06,341.07,12
AOML,57.042,26021992,1:00:29,7.24,-82.81,369.22,357.68,1009.09,1009.09,29.38,29.28,32.56,347.14,340.99,6.1
AOML,57.083,26021992,1:59:31,7.28,-83.07,366.31,357.66,1010.05,1010.05,30.12,30.13,32.35,344.89,340.67,4.2
AOML,57.125,26021992,3:00:00,7.33,-83.32,350.35,357.68,1010.58,1010.58,30.18,30.13,32.42,329.96,340.83,-10.9
AOML,57.167,26021992,4:00:29,7.37,-83.56,370.27,358.28,1010.89,1010.89,29.95,29.9,31.98,348.21,341.74,6.5
AOML,57.208,26021992,4:59:31,7.41,-83.81,362.94,354.27,1010.92,1010.92,29.79,29.76,32.07,340.83,338.09,2.7
AOML,57.25,26021992,6:00:00,7.45,-84.05,346.61,355.8,1010.55,1010.55,29.45,29.43,32.39,326.24,339.66,-13.4
AOML,57.292,26021992,7:00:29,7.48,-84.3,365.31,357.06,1010.07,1010.07,29.76,29.69,32.46,343.28,340.45,2.8
AOML,57.333,26021992,7:59:31,7.53,-84.54,365.13,357.9,1009.63,1009.63,29.73,29.67,32.18,343.58,341.09,2.5
AOML,57.875,26021992,21:00:00,8.12,-87.44,389.97,359.31,1008.82,1008.82,29.31,29.14,34.41,364.84,342.62,22.2
AOML,57.917,26021992,22:00:29,8.18,-87.66,374.7,360.37,1008.75,1008.75,29.21,29.1,34,351.9,343.61,8.3
AOML,57.958,26021992,22:59:31,8.24,-87.88,372.36,361,1008.83,1008.83,28.95,28.81,34.04,349.03,344.49,4.5
AOML,58,27021992,0:00:00,8.25,-88.13,372.21,360.8,1009.67,1009.67,28.94,-99,-99,349.63,343.54,6.1
AOML,58.25,27021992,6:00:00,8.48,-89.45,371.28,359.93,1011.58,1011.58,28.52,-99,-99,349.33,343.76,5.6
AOML,58.5,27021992,12:00:00,8.66,-90.82,395.22,358.43,1011.38,1011.38,28,-99,-99,372.33,342.67,29.7
AOML,59,28021992,0:00:00,9.03,-92.78,416.65,360.03,1010.81,1010.81,27.29,-99,-99,393.4,344.53,48.9
AOML,59.042,28021992,1:00:29,9.08,-93.05,437.22,361.23,1010.9,1010.9,27.3,27.34,34.3,414.7,346.58,68.1
AOML,59.125,28021992,3:00:00,9.14,-93.52,371.11,359.93,1012.31,1012.31,27.73,27.77,33.94,352.1,345.52,6.6
AOML,59.167,28021992,4:00:29,9.18,-93.77,373.6,360.42,1012.91,1012.91,27.67,27.72,33.77,354.9,346.24,8.7
AOML,59.208,28021992,4:59:31,9.23,-94.01,374.86,360.23,1012.8,1012.8,27.6,27.67,33.77,356.35,346.05,10.3
AOML,59.25,28021992,6:00:00,9.27,-94.25,377.88,360.46,1012.55,1012.55,27.99,28.02,33.76,358.27,345.93,12.3
AOML,59.292,28021992,7:00:29,9.32,-94.49,375.54,360.09,1011.84,1011.84,27.96,28.02,33.81,356.24,345.32,10.9
AOML,59.333,28021992,7:59:31,9.37,-94.73,375.2,360.09,1011.11,1011.11,27.93,27.98,33.74,355.57,345.09,10.5
AOML,59.375,28021992,9:00:00,9.41,-94.97,374.4,360.2,1010.47,1010.47,28.08,28.13,33.76,354.4,344.86,9.5
AOML,59.417,28021992,10:00:29,9.44,-95.21,375.45,360.34,1010.48,1010.48,28.07,28.1,33.66,355.23,345.01,10.2
AOML,59.459,28021992,11:00:58,9.48,-95.45,372.97,360.49,1010.52,1010.52,28.14,28.17,33.5,352.68,345.12,7.6
AOML,59.5,28021992,12:00:00,9.52,-95.68,376.96,360.41,1011.09,1011.09,27.84,27.87,33.55,356.97,345.48,11.5
AOML,59.542,28021992,13:00:29,9.56,-95.91,374.94,360.49,1011.71,1011.71,28.23,28.24,33.75,354.67,345.49,9.2
AOML,59.583,28021992,13:59:31,9.6,-96.13,375.18,360.6,1012.32,1012.32,28.14,28.15,33.83,355.23,345.88,9.3
AOML,59.625,28021992,15:00:00,9.64,-96.36,375.84,360.51,1013.06,1013.06,27.87,27.9,33.79,356.67,346.24,10.4
AOML,59.667,28021992,16:00:29,9.68,-96.59,380.39,360.89,1013.34,1013.34,27.57,27.61,33.65,361.34,346.92,14.4
AOML,59.708,28021992,16:59:31,9.73,-96.82,378.67,361.39,1013.54,1013.54,27.67,27.69,33.66,359.47,347.41,12.1
AOML,59.75,28021992,18:00:00,9.77,-97.05,379.67,361.64,1012.74,1012.74,27.75,27.75,33.7,359.75,347.33,12.4
AOML,59.792,28021992,19:00:29,9.82,-97.3,375.57,362.34,1011.96,1011.96,28.32,28.26,33.73,354.29,347.34,7
AOML,59.833,28021992,19:59:31,9.86,-97.55,375.12,362.12,1011.55,1011.55,28.53,28.48,33.8,349.82,347.02,2.8
AOML,59.875,28021992,21:00:00,9.9,-97.81,374.86,361.75,1010.66,1010.66,28.31,28.27,33.66,353.16,346.32,6.8
AOML,59.917,28021992,22:00:29,9.95,-98.07,377.76,361.14,1010.05,1010.05,28.24,28.18,33.45,355.85,345.57,10.3
AOML,59.958,28021992,22:59:31,9.99,-98.34,378.64,360.51,1009.87,1009.87,28.29,28.25,33.29,356.58,344.85,11.7
AOML,60,29021992,0:00:00,10.04,-98.6,378.84,360.77,1010.32,1010.32,28.31,28.29,33.29,356.94,345.25,11.7
AOML,60.042,29021992,1:00:29,10.08,-98.87,376.22,361.31,1010.65,1010.65,28.31,28.28,33.24,354.78,345.87,8.9
AOML,60.083,29021992,1:59:31,10.13,-99.13,375.93,361.37,1011.39,1011.39,28.36,28.35,33.32,354.65,346.16,8.5
AOML,60.125,29021992,3:00:00,10.19,-99.4,375.09,361.72,1012.28,1012.28,27.99,28,33.52,354.71,347.08,7.6
AOML,60.167,29021992,4:00:29,10.24,-99.65,378.53,361.53,1012.93,1012.93,27.98,28,33.47,358.13,347.14,11
AOML,60.208,29021992,4:59:31,10.29,-99.91,380.09,361.05,1013.24,1013.24,28.01,28.03,33.56,359.57,346.77,12.8
AOML,60.25,29021992,6:00:00,10.34,-100.16,378.6,361.01,1013.09,1013.09,27.96,27.98,33.55,358.45,346.7,11.8
AOML,60.292,29021992,7:00:29,10.39,-100.41,379.39,361.06,1012.68,1012.68,28.1,28.12,33.64,359,346.5,12.5
AOML,60.333,29021992,7:59:31,10.43,-100.66,379.1,360.96,1011.72,1011.72,28.27,28.28,33.56,358.28,345.93,12.3
AOML,60.375,29021992,9:00:00,10.47,-100.9,379.05,360.99,1011.17,1011.17,28.24,28.26,33.66,357.9,345.79,12.1
AOML,60.417,29021992,10:00:29,10.52,-101.15,378.85,361.18,1011.14,1011.14,28.31,28.33,33.65,357.22,345.94,11.3
AOML,60.458,29021992,10:59:31,10.57,-101.39,379.06,361.33,1011.26,1011.26,28.22,28.24,33.48,358.13,346.16,12
AOML,60.5,29021992,12:00:00,10.63,-101.63,377.43,361.31,1011.27,1011.27,28.23,28.25,33.51,356.15,346.15,10
AOML,60.542,29021992,13:00:29,10.69,-101.88,378.98,361.18,1011.68,1011.68,28.12,28.15,33.48,358,346.25,11.7
AOML,60.584,29021992,14:00:58,10.74,-102.12,377.28,361.18,1012.55,1012.55,28.06,28.09,33.66,357.08,347,10.1
AOML,60.625,29021992,15:00:00,10.77,-102.36,366.62,361.53,1013.41,1013.41,28.13,28.16,33.82,346.96,347.2,-0.2
AOML,60.667,29021992,16:00:29,10.8,-102.61,365.6,361.23,1014.09,1014.09,28.11,28.12,33.65,346.67,347.15,-0.5
AOML,60.708,29021992,16:59:31,10.82,-102.86,364.71,361.34,1014.29,1014.29,28.16,28.15,33.75,345.98,347.27,-1.3
AOML,60.75,29021992,18:00:00,10.84,-103.11,369.12,361.41,1013.66,1013.66,28.1,28.09,33.94,349.75,347.18,2.6
AOML,60.792,29021992,19:00:29,10.88,-103.36,371.76,361.55,1012.97,1012.97,28.07,28.05,33.88,352.24,347.08,5.2
AOML,60.833,29021992,19:59:31,10.91,-103.62,372.98,360.95,1011.96,1011.96,28.17,28.15,33.94,352.11,346.12,6
AOML,60.875,29021992,21:00:00,10.95,-103.88,372.52,360.93,1011.09,1011.09,28.18,28.15,33.88,351.91,345.74,6.2
AOML,60.917,29021992,22:00:29,11,-104.12,370,360.7,1010.61,1010.61,28.24,28.2,33.93,349.06,345.33,3.7
AOML,60.958,29021992,22:59:31,11.01,-104.15,372.25,360.82,1010.38,1010.38,28.19,28.21,33.79,351.17,345.39,5.8
AOML,61,01031992,0:00:00,11.05,-104.41,372.68,360.83,1010.68,1010.68,28.18,28.2,33.8,352.03,345.5,6.5
AOML,61.042,01031992,1:00:29,11.09,-104.66,370.54,360.56,1010.82,1010.82,28.15,28.16,33.84,350.15,345.32,4.8
AOML,61.083,01031992,1:59:31,11.13,-104.92,370.87,359.97,1011.58,1011.58,28.16,28.15,33.85,350.83,345,5.8
AOML,61.125,01031992,3:00:00,11.16,-105.17,367.94,359.79,1012.19,1012.19,28.04,28.06,33.75,348.46,345.13,3.3
AOML,61.167,01031992,4:00:29,11.2,-105.42,369.37,359.83,1012.98,1012.98,28.03,28.05,33.69,350.08,345.46,4.6
AOML,61.208,01031992,4:59:31,11.24,-105.67,369.47,359.78,1013.25,1013.25,27.98,28,33.68,350.68,345.52,5.2
AOML,61.25,01031992,6:00:00,11.29,-105.92,368.45,359.75,1013.24,1013.24,28.03,28.05,33.78,349.62,345.46,4.2
AOML,61.292,01031992,7:00:29,11.33,-106.17,368.68,359.76,1013.23,1013.23,28,28.02,33.66,349.82,345.49,4.3
AOML,61.333,01031992,7:59:31,11.36,-106.42,369.46,359.73,1012.34,1012.34,27.98,27.99,33.63,350.1,345.16,4.9
AOML,61.375,01031992,9:00:00,11.4,-106.68,367.26,359.71,1011.56,1011.56,27.95,27.97,33.63,347.8,344.89,2.9
AOML,61.417,01031992,10:00:29,11.46,-106.92,363.8,359.65,1011.19,1011.19,28.03,28.05,33.69,344.38,344.64,-0.3
AOML,61.458,01031992,10:59:31,11.52,-107.17,358.95,359.62,1010.84,1010.84,28.04,28.07,33.81,339.1,344.52,-5.4
AOML,61.5,01031992,12:00:00,11.58,-107.41,361.25,359.34,1010.73,1010.73,27.98,28.02,33.7,341.84,344.21,-2.4
AOML,61.542,01031992,13:00:29,11.61,-107.6,364.57,359.38,1011.27,1011.27,27.83,27.87,33.51,345.18,344.56,0.6
AOML,61.583,01031992,13:59:31,11.67,-107.9,363.46,359.36,1011.61,1011.61,27.76,27.81,33.53,344.25,344.72,-0.5
AOML,61.625,01031992,15:00:00,11.71,-108.15,359.63,359.53,1012.2,1012.2,27.56,27.61,33.5,340.71,345.25,-4.5
AOML,61.667,01031992,16:00:29,11.74,-108.39,358.04,359.35,1013.12,1013.12,27.54,27.57,33.46,339.73,345.4,-5.7
AOML,61.708,01031992,16:59:31,11.78,-108.64,358.39,359.49,1013.48,1013.48,27.65,27.66,33.55,340.22,345.58,-5.4
AOML,61.75,01031992,18:00:00,11.82,-108.89,359.39,359.3,1013.26,1013.26,27.75,27.76,33.68,340.68,345.26,-4.6
AOML,61.792,01031992,19:00:29,11.85,-109.14,359.44,359.32,1012.47,1012.47,27.76,27.76,33.69,340.22,345.01,-4.8
AOML,61.833,01031992,19:59:31,11.89,-109.4,359.66,359.23,1011.65,1011.65,27.69,27.69,33.57,340.2,344.68,-4.5
AOML,61.875,01031992,21:00:00,11.94,-109.65,358.75,359.47,1010.95,1010.95,27.7,27.72,33.62,338.89,344.67,-5.8
AOML,61.917,01031992,22:00:29,11.98,-109.9,358.02,359.76,1009.92,1009.92,27.68,27.7,33.66,337.13,344.63,-7.5
AOML,62,02031992,0:00:00,12,-110.02,357.26,359.83,1009.66,1009.66,27.5,27.58,33.47,336.91,344.71,-7.8
AOML,62.042,02031992,1:00:29,12,-110.03,356.38,360.27,1009.98,1009.98,27.45,27.54,33.47,336.33,345.28,-8.9
AOML,62.083,02031992,1:59:31,11.99,-110.03,355.77,360.42,1010.6,1010.6,27.41,27.49,33.47,336.28,345.66,-9.4
AOML,62.125,02031992,3:00:00,11.77,-110.04,354.09,360.28,1010.95,1010.95,27.48,27.52,33.5,335.29,345.57,-10.3
AOML,62.167,02031992,4:00:29,11.54,-110.04,353.22,360.28,1011.56,1011.56,27.71,27.74,33.67,334.11,345.64,-11.5
AOML,62.208,02031992,4:59:31,11.3,-110.05,354.57,360.29,1012.01,1012.01,27.81,27.83,33.67,335.34,345.75,-10.4
AOML,62.25,02031992,6:00:00,11.18,-110.06,355.88,360.35,1012.02,1012.02,27.58,27.64,33.54,336.86,345.97,-9.1
AOML,62.292,02031992,7:00:29,10.97,-110.05,352.84,360.39,1011.85,1011.85,27.73,27.76,33.57,334.11,345.82,-11.7
AOML,62.333,02031992,7:59:31,10.75,-110.04,353.35,360.38,1010.86,1010.86,27.82,27.86,33.62,334.33,345.39,-11.1
AOML,62.375,02031992,9:00:00,10.52,-110.03,357.35,360.41,1009.96,1009.96,27.89,27.93,33.64,337.69,345.05,-7.4
AOML,62.417,02031992,10:00:29,10.29,-110.02,356.35,360.37,1009.44,1009.44,27.93,27.97,33.64,336.5,344.8,-8.3
AOML,62.458,02031992,10:59:31,10.14,-110.02,358.99, ,1009.31,1009.31,27.93,27.97,33.66,338.93,344.8,-5.9
AOML,62.5,02031992,12:00:00,10,-110.01,357.37,360.38,1009.38,1009.38,28.02,28.23,33.63,336.96,344.75,-7.8
AOML,62.542,02031992,13:00:29,10.01,-110.02,357.22, ,1010.07,1010.07,28.01,28.15,33.65,337.16,344.7,-7.5
AOML,62.583,02031992,13:59:31,10.01,-110.03,357.24, ,1010.78,1010.78,28.01,28.13,33.65,337.43,344.7,-7.3
AOML,62.75,02031992,18:00:00,10,-110.06,356.78, ,1012.83,1012.83,28.06,28.14,33.65,337.55,345,-7.4
AOML,62.792,02031992,19:00:29,9.89,-110.05,361.15,361.38,1011.94,1011.94,28.06,28.08,33.66,341.57,346.57,-5
AOML,62.834,02031992,20:00:58,9.66,-110.05,368.85,361.51,1010.89,1010.89,28.06,28.08,33.67,348.37,346.32,2
AOML,62.875,02031992,21:00:00,9.42,-110.04,367.84,361.35,1009.81,1009.81,28.11,28.11,33.66,346.68,345.77,0.9
AOML,62.917,02031992,22:00:29,9.18,-110.04,368,361.35,1008.79,1008.79,28.08,28.07,33.64,347.5,345.37,2.1
AOML,62.958,02031992,22:59:31,8.94,-110.04,371.2,361.43,1008.23,1008.23,28.32,28.3,33.82,349.27,345.12,4.1
AOML,63,03031992,0:00:00,8.7,-110.03,370.77,360.73,1008.18,1008.18,28.31,28.32,33.78,348.98,344.44,4.5
AOML,63.042,03031992,1:00:29,8.46,-110.03,373.1,360.11,1008.46,1008.46,28.28,28.31,33.78,351.24,343.97,7.3
AOML,63.083,03031992,1:59:31,8.23,-110.02,371.73,359.9,1008.78,1008.78,28.25,28.28,33.71,350.35,343.88,6.5
AOML,63.125,03031992,3:00:00,8.03,-110.06,367.85, ,1009.41,1009.41,28.13,28.33,33.66,346.88,344,2.9
AOML,63.167,03031992,4:00:29,8.01,-110.08,366.07, ,1010.07,1010.07,28.12,28.25,33.71,345.59,344,1.6
AOML,63.208,03031992,4:59:31,8.01,-110.08,365.32, ,1010.55,1010.55,28.1,28.24,33.73,345.17,344,1.2
AOML,63.25,03031992,6:00:00,8,-110.1,365.09, ,1010.72,1010.72,28.1,28.21,33.73,345.02,344,1
AOML,63.292,03031992,7:00:29,8,-110.1,365.2, ,1010.52,1010.52,28.1,28.2,33.74,345.07,344,1.1
AOML,63.333,03031992,7:59:31,7.84,-110.1,368.25, ,1009.59,1009.59,28.04,28.13,33.75,347.86,344,3.9
AOML,63.375,03031992,9:00:00,7.6,-110.09,370.26,360.21,1008.83,1008.83,27.95,28.01,33.7,349.82,344.39,5.4
AOML,63.417,03031992,10:00:29,7.36,-110.07,372.15,360.62,1007.98,1007.98,28.01,28.04,33.62,351.17,344.45,6.7
AOML,63.458,03031992,10:59:31,7.12,-110.04,372.49,359.98,1007.88,1007.88,28.1,28.12,33.62,351.27,343.73,7.5
AOML,63.5,03031992,12:00:00,6.88,-110.01,376.31,359.93,1007.82,1007.82,27.9,27.95,33.62,355.32,343.79,11.5
AOML,63.542,03031992,13:00:29,6.65,-110,374.53,359.76,1008.21,1008.21,28.14,28.16,34.23,353.18,343.62,9.6
AOML,63.583,03031992,13:59:31,6.41,-110,372.19,358.85,1008.79,1008.79,28.1,28.12,34.33,351.44,342.98,8.5
AOML,63.625,03031992,15:00:00,6.18,-110,373.61,358.89,1009.58,1009.58,28.15,28.15,34.37,352.89,343.26,9.6
AOML,63.667,03031992,16:00:29,6,-110,372.33,358.55,1010.03,1010.03,28.16,28.21,34.34,351.54,343.1,8.4
AOML,63.708,03031992,16:59:31,6,-109.99,371.62, ,1010.53,1010.53,28.19,28.22,34.35,350.83,343,7.8
AOML,63.75,03031992,18:00:00,6,-109.99,372.21, ,1010.24,1010.24,28.24,28.24,34.35,351.02,343,8
AOML,63.792,03031992,19:00:29,5.78,-109.98,374.24,358.67,1009.43,1009.43,28.23,28.26,34.39,352.79,342.97,9.8
AOML,63.833,03031992,19:59:31,5.59,-109.98,377.04,359.1,1008.48,1008.48,28.24,28.32,34.43,354.97,343.04,11.9
AOML,63.875,03031992,21:00:00,5.35,-109.99,380.35,358.7,1007.62,1007.62,28.35,28.37,34.46,357.69,342.27,15.4
AOML,63.917,03031992,22:00:29,5.12,-110,382.74,358.64,1006.72,1006.72,28.33,28.36,34.52,359.69,341.91,17.8
AOML,63.958,03031992,22:59:31,5.01,-110,385.94,359.28,1006.16,1006.16,28.39,28.48,34.49,361.86,342.31,19.6
AOML,64,04031992,0:00:00,5.02,-110,385.2,358.71,1006.08,1006.08,28.37,28.41,34.47,361.32,341.74,19.6
AOML,64.042,04031992,1:00:29,5.03,-109.99,385.14,358.57,1006.57,1006.57,28.32,28.39,34.46,361.73,341.8,19.9
AOML,64.084,04031992,2:00:58,5.04,-110,384.32,358.54,1006.84,1006.84,28.29,28.36,34.45,361.23,341.89,19.3
AOML,64.125,04031992,3:00:00,5.04,-110.01,384.98,362.24,1007.78,1007.78,28.26,28.3,34.44,362.21,345.77,16.4
AOML,64.167,04031992,4:00:29,5.05,-110.02,385.75, ,1008.65,1008.65,28.26,28.24,34.44,363.33,343,20.3
AOML,64.208,04031992,4:59:31,5.06,-110,385.7, ,1009.11,1009.11,28.23,28.18,34.44,363.53,343,20.5
AOML,64.25,04031992,6:00:00,5.08,-109.98,385.8, ,1009.33,1009.33,28.22,28.16,34.44,363.79,343,20.8
AOML,64.292,04031992,7:00:29,5.09,-109.97,385.97, ,1009.18,1009.18,28.21,28.14,34.45,363.88,343,20.9
AOML,64.333,04031992,7:59:31,5.11,-109.95,386.35, ,1008.55,1008.55,28.21,28.14,34.45,364.01,343,21
AOML,64.375,04031992,9:00:00,5.12,-109.93,386.74, ,1007.77,1007.77,28.2,28.15,34.45,364.53,343,21.5
AOML,64.417,04031992,10:00:29,5.13,-109.93,387.71,358.11,1007.07,1007.07,28.17,28.11,34.46,365.04,341.63,23.4
AOML,64.458,04031992,10:59:31,5.14,-109.93,387.07,358.28,1006.81,1006.81,28.16,28.1,34.46,364.5,341.7,22.8
AOML,64.5,04031992,12:00:00,5.13,-109.94,387.92,358.33,1006.77,1006.77,28.15,28.08,34.46,365.24,341.74,23.5
AOML,64.542,04031992,13:00:29,4.95,-109.95,391.74,358.67,1007.02,1007.02,28.09,28.02,34.47,368.65,342.21,26.4
AOML,64.583,04031992,13:59:31,4.96,-109.96,391.68, ,1007.74,1007.74,28.09,28.02,34.47,368.71,342.5,26.2
AOML,64.625,04031992,15:00:00,4.94,-109.91,391.28, ,1008.88,1008.88,28.09,28.01,34.47,368.76,342.5,26.3
AOML,64.667,04031992,16:00:29,4.95,-109.9,390.77, ,1009.26,1009.26,28.09,28.01,34.47,368.39,342.5,25.9
AOML,64.708,04031992,16:59:31,4.97,-109.89,391.05, ,1009.8,1009.8,28.1,28.02,34.47,368.66,342.5,26.2
AOML,64.75,04031992,18:00:00,4.98,-109.89,391.33,358.51,1009.63,1009.63,28.13,28.05,34.47,368.79,342.97,25.8
AOML,64.792,04031992,19:00:29,4.99,-109.9,392.39, ,1009.36,1009.36,28.18,28.1,34.47,369.55,342.5,27.1
AOML,64.833,04031992,19:59:31,5,-109.92,393.66, ,1008.52,1008.52,28.22,28.13,34.47,370.18,342.5,27.7
AOML,64.875,04031992,21:00:00,5,-109.93,395.63, ,1007.57,1007.57,28.25,28.14,34.48,371.43,342.5,28.9
AOML,64.917,04031992,22:00:29,5.01,-109.94,401.99, ,1006.57,1006.57,28.27,28.16,34.48,376.92,342.5,34.4
AOML,64.958,04031992,22:59:31,5.01,-109.92,398.35,359.36,1005.9,1005.9,28.25,28.15,34.48,373.47,342.39,31.1
AOML,65,05031992,0:00:00,4.82,-109.93,396.26,359.66,1005.87,1005.87,28.22,28.2,34.48,371.91,342.67,29.2
AOML,65.042,05031992,1:00:29,4.59,-109.94,394.72,359.32,1006.21,1006.21,28.21,28.24,34.52,370.61,342.48,28.1
AOML,65.084,05031992,2:00:58,4.37,-109.96,394.79,359.13,1006.59,1006.59,28.14,28.19,34.55,371.04,342.47,28.6
AOML,65.125,05031992,3:00:00,4.14,-109.98,393.5,359.1,1006.99,1006.99,28.06,28.12,34.51,370.07,342.65,27.4
AOML,65.167,05031992,4:00:29,4.01,-109.99,390.4,358.99,1007.84,1007.84,28.08,28.15,34.46,367.18,342.84,24.3
AOML,65.209,05031992,5:00:58,4.01,-109.99,389.42, ,1008.37,1008.37,28.05,28.08,34.46,366.63,342.9,23.7
AOML,65.25,05031992,6:00:00,4.01,-109.99,389.14, ,1008.56,1008.56,28.04,28.05,34.46,366.48,342.9,23.6
AOML,65.292,05031992,7:00:29,3.81,-109.99,388.45,358.81,1008.28,1008.28,27.97,28.02,34.45,366.18,342.88,23.3
AOML,65.333,05031992,7:59:31,3.58,-109.99,389.43,358.67,1007.35,1007.35,27.88,27.94,34.45,366.73,342.49,24.2
AOML,65.375,05031992,9:00:00,3.35,-110,390.42,358.95,1006.51,1006.51,27.78,27.85,34.43,367.46,342.54,24.9
AOML,65.417,05031992,10:00:29,3.12,-110.01,390.12,358.66,1005.86,1005.86,27.63,27.72,34.21,367.46,342.11,25.4
AOML,65.458,05031992,10:59:31,3,-110.01,401.28,358.54,1005.8,1005.8,27.72,27.88,34.36,376.95,341.96,35
AOML,65.5,05031992,12:00:00,3.01,-110.01,400.07,359.28,1005.76,1005.76,27.65,27.66,34.19,376.52,342.67,33.8
AOML,65.542,05031992,13:00:29,2.96,-110.02,397.09, ,1006.03,1006.03,27.68,27.68,34.07,373.52,342.6,30.9
AOML,65.583,05031992,13:59:31,2.74,-110.04,399.8,358.67,1007.1,1007.1,27.61,27.66,34.31,377.04,342.57,34.5
AOML,65.625,05031992,15:00:00,2.51,-110.06,404.32,358.58,1008.5,1008.5,27.69,27.75,34.3,381.78,342.93,38.9
AOML,65.667,05031992,16:00:29,2.29,-110.07,404.57,358.57,1009.57,1009.57,27.8,27.84,34.19,381.42,343.26,38.2
AOML,65.708,05031992,16:59:31,2.06,-110.07,401.76,358.51,1009.88,1009.88,27.71,27.77,34.4,379.89,343.33,36.6
AOML,65.75,05031992,18:00:00,2.04,-110.1,399.91,358.58,1010.29,1010.29,27.77,27.85,34.2,377.63,343.53,34.1
AOML,65.792,05031992,19:00:29,2.05,-110.11,397.81,358.37,1009.89,1009.89,27.75,27.82,34.04,377.03,343.13,33.9
AOML,65.833,05031992,19:59:31,2.07,-110.12,400.78,357.66,1009.34,1009.34,27.8,27.88,34.19,378.22,342.28,35.9
AOML,65.875,05031992,21:00:00,2.08,-110.13,402.43,357.5,1008.57,1008.57,27.83,27.88,34.28,379.72,341.83,37.9
AOML,65.917,05031992,22:00:29,2.07,-110.11,403.41,357.74,1008.06,1008.06,27.83,27.88,34.37,380.33,341.88,38.4
AOML,65.958,05031992,22:59:31,1.91,-110.09,402.18,357.63,1007.49,1007.49,27.72,27.76,34.34,378.96,341.66,37.3
AOML,66,06031992,0:00:00,1.69,-110.08,405.71,357.45,1007.42,1007.42,27.56,27.63,34.45,382.14,341.59,40.5
AOML,66.042,06031992,1:00:29,1.46,-110.05,402.76,357.16,1007.59,1007.59,27.44,27.51,34.26,379.97,341.44,38.5
AOML,66.083,06031992,1:59:31,1.23,-110.02,402.72,358.3,1008.26,1008.26,27.44,27.51,34.35,380.23,342.77,37.5
AOML,66.334,06031992,8:00:58,0.88,-110.05,414.14, ,1008.89,1008.89,27.46,27.5,34.62,391.49,342.4,49.1
AOML,66.375,06031992,9:00:00,0.64,-110.01,413.77,357.52,1008.12,1008.12,27.5,27.57,34.66,390.68,341.92,48.8
AOML,66.458,06031992,10:59:31,0.49,-110.02,415.73,358.29,1007.03,1007.03,27.58,27.62,34.72,391.78,342.22,49.6
AOML,66.5,06031992,12:00:00,0.34,-110.01,420.69, ,1007.03,1007.03,27.59,27.63,34.77,396.98,342.6,54.4
AOML,66.542,06031992,13:00:29,0.25,-110,430.68,358.44,1007.43,1007.43,27.64,27.7,34.95,406.18,342.46,63.7
AOML,66.584,06031992,14:00:58,0.24,-110.01,429.22,358.51,1007.92,1007.92,27.66,27.73,34.95,404.84,342.7,62.1
AOML,66.625,06031992,15:00:00,0.14,-110,429.85,358.46,1008.54,1008.54,27.56,27.61,34.97,406.1,342.93,63.2
AOML,66.667,06031992,16:00:29,0,-110.03,432.42,357.61,1009.31,1009.31,27.72,27.79,35.06,408.64,342.27,66.4
AOML,66.708,06031992,16:59:31,-0.01,-110.04,432.52,358.24,1009.7,1009.7,27.79,27.81,35.1,408.18,342.98,65.2
AOML,66.75,06031992,18:00:00,-0.01,-110.04,432.31,358.25,1009.83,1009.83,27.83,27.8,35.1,408.06,343.01,65.1
AOML,66.792,06031992,19:00:29,-0.02,-110.05,432.09,358.42,1009.49,1009.49,27.88,27.82,35.09,409.08,342.95,66.1
AOML,66.833,06031992,19:59:31,-0.03,-110.04,357.57,357.76,1008.7,1008.7,28,27.89,35.1,336.89,342.01,-5.1
AOML,66.917,06031992,22:00:29,-0.05,-110.05,432.15,358.16,1007.43,1007.43,28,27.88,35.09,407.53,341.92,65.6
AOML,66.958,06031992,22:59:31,-0.05,-110.05,433.79, ,1007,1007,28.1,28.01,35.04,408.04,341.8,66.2
AOML,67,07031992,0:00:00,-0.06,-110.05,436.14,358.21,1006.92,1006.92,28.09,28.02,35.02,410.33,341.75,68.6
AOML,67.042,07031992,1:00:29,-0.12,-110.04,432.6,358.57,1007.3,1007.3,27.92,27.88,35.05,409.26,342.27,67
AOML,67.083,07031992,1:59:31,-0.25,-110.01,433.49,357.22,1007.98,1007.98,28.02,28,35.09,408.97,341.2,67.8
AOML,67.125,07031992,3:00:00,-0.26,-110.01,434.57,358.08,1008.81,1008.81,28,27.97,35.08,409.91,342.35,67.6
AOML,67.167,07031992,4:00:29,-0.28,-110.01,433.73, ,1009.33,1009.33,28,27.99,35.07,409.39,342.4,67
AOML,67.208,07031992,4:59:31,-0.44,-110.01,431.06,357.61,1010,1010,27.85,27.86,35.08,407.6,342.41,65.2
AOML,67.25,07031992,6:00:00,-0.5,-110,431.98,358.16,1010.44,1010.44,27.83,27.79,35.11,408.57,343.12,65.5
AOML,67.292,07031992,7:00:29,-0.5,-110.01,431.61,362.89,1009.97,1009.97,27.77,27.76,35.09,408.23,347.52,60.7
AOML,67.333,07031992,7:59:31,-0.67,-110,430.43,357.19,1009.13,1009.13,27.67,27.66,35.1,406.9,341.83,65.1
AOML,67.375,07031992,9:00:00,-0.92,-110,427.06,357.05,1008.48,1008.48,27.71,27.7,35.05,403.41,341.45,62
AOML,67.417,07031992,10:00:29,-1.01,-110,428.6, ,1007.71,1007.71,27.72,27.68,35.08,404.31,341.3,63
AOML,67.458,07031992,10:59:31,-1.01,-109.99,427.85,357.01,1007.67,1007.67,27.76,27.71,35.05,403.58,341.09,62.5
AOML,67.5,07031992,12:00:00,-1.01,-109.98,426.88,357.11,1007.78,1007.78,27.69,27.65,35.02,402.73,341.27,61.5
AOML,67.542,07031992,13:00:29,-1.02,-109.98,426.64,357.91,1008.07,1008.07,27.66,27.65,35.02,402.66,342.16,60.5
AOML,67.583,07031992,13:59:31,-1.07,-109.98,427.14, ,1008.54,1008.54,27.66,27.64,35.03,403.53,342,61.5
AOML,67.625,07031992,15:00:00,-1.32,-109.98,430.13,357.29,1009.17,1009.17,27.7,27.71,35.1,407.03,341.9,65.1
AOML,67.667,07031992,16:00:29,-1.57,-109.99,429.35,356.77,1010.04,1010.04,27.65,27.65,35.15,406.11,341.77,64.3
AOML,67.708,07031992,16:59:31,-1.81,-109.99,429.14,356.69,1009.9,1009.9,27.66,27.66,35.14,406.1,341.62,64.5
AOML,67.75,07031992,18:00:00,-2.01,-109.99,431.95, ,1009.69,1009.69,27.65,27.63,35.14,408.42,341.5,66.9
AOML,67.792,07031992,19:00:29,-2.03,-109.99,428.06, ,1009.15,1009.15,27.64,27.62,35.14,404.24,341.5,62.7
AOML,67.833,07031992,19:59:31,-2.02,-109.99,425.4,356.79,1008.28,1008.28,27.65,27.65,35.1,401.42,341.18,60.2
AOML,67.875,07031992,21:00:00,-2,-110,425.9,356.84,1007.58,1007.58,27.65,27.64,35.07,401.69,340.98,60.7